星链-37735(STARLINK-37735)

导读

STARLINK-37735(NORAD编号69243)是SpaceX星链(Starlink)低轨互联网星座中的一颗通信卫星,隶属SpaceX全球卫星互联网项目。 作为星链批量部署的卫星之一,它运行于近地轨道,旨在为全球偏远地区、海洋航空等场景提供高速宽带互联网接入服务,依托低轨轨道缩短信号传输延迟,补充地面网络覆盖盲区。 星链星座通过持续发射同类卫星组网,STARLINK-37735是SpaceX扩张星座规模、完善全球覆盖能力的组成部分,助力实现无缝全球互联的通信目标。

基本信息
目录编号:
69243
目录名称:
STARLINK-37735
国际标识:
2026-117F
轨道中心:
EARTH
卫星名称:
星链-37735
卫星全名:
星链-37735(STARLINK-37735)
卫星状态:
在轨 (已飞行98 天)
发射日期:
2026-05-29 UTC
国别 :
美国 (US)
星等 :
--
轨道信息
数据来源 国际轨道数据 AOE轨道数据
星历时间 2026-09-04T00:06:30+0800
13小时前
查看轨道信息
2026-09-02T23:00:00+0800
1天前
查看轨道信息
半长轴 6840.901km 6840.735km
偏心率 0.0001547 0.0001214
轨道倾角 53.157° 53.156°
近地点辐角 86.842° 106.435°
升交点赤经 232.400° 237.291°
平近点角 273.276° 231.661°
近地点 461.705km 461.767km
远地点 463.823km 463.429km
周期 93.849分钟 93.846分钟
每日圈数 15.343796 15.344355
详细信息
固有亮度:
5
最大亮度:
2.5
卫星平台:
Starlink V1.0
覆盖范围:
全球
运营商:
太空探索技术公司
运营商所在国:
美国
制造商(研发单位):
太空探索技术公司
制造商所在国:
美国
使用方式:
暂无
卫星简介
Starlink 计划是 SpaceX 推出的全球卫星互联网项目,通过发射低轨道卫星,为全球尤其是偏远地区提供高速、低延迟的互联网服务。自 2019 年起,Starlink 已部署数千颗卫星,旨在缩小全球数字鸿沟,推动互联网普及。该项目还为军事、航空等行业提供通信支持,带来广泛经济效益。
2D轨道图
3D轨道图
轨道高度分析图
轨道倾角分析图
轨道综合分析图
查看轨道综合分析图
交会数据列表
事件ID 空间交会对象 最接近时刻(TCA) 交会距离 交会风险概率(CRP) 交会风险指数(CRI) 操作
CDM_260905-040306-924306-984621
2026-09-05T
04:03:04+0000
1.024 km
极远距离
2.182713E-5 中风险 0.62
CDM_260905-044205-343806-924321
2026-09-05T
04:42:13+0000
2.532 km
极远距离
1.477504E-6 低风险 0.38
CDM_260905-061405-300706-924321
2026-09-05T
06:14:28+0000
2.589 km
极远距离
1.397437E-6 低风险 0.38
CDM_260903-102605-210806-924321
2026-09-03T
10:26:03+0000
2.693 km
极远距离
1.261373E-6 低风险 0.37
CDM_260903-124605-210806-924321
2026-09-03T
12:46:47+0000
2.830 km
极远距离
1.175481E-6 低风险 0.36
CDM_260905-013205-231106-924321
2026-09-05T
01:32:40+0000
2.931 km
极远距离
1.163062E-6 低风险 0.36